This is the latest recevied weather packets stored in our database for station/object KD4UFD. If no packets are shown the sender has not sent any weather packets the latest 1 day(s).
| Time | Temp. | Humidity | Pressure | Rain* | Wind** | Luminosity | Snow |
|---|---|---|---|---|---|---|---|
| 1778090750 | 21.67° C | 86% | 1012.3 hPa | 0 mm | - | 381 W/m² | - |
| 1778089234 | 21.11° C | 90% | 1012.4 hPa | 0 mm | - | 487 W/m² | - |
| 1778088022 | 20° C | 91% | 1011.4 hPa | 0 mm | - | 229 W/m² | - |
| 1778087417 | 20° C | 94% | 1011.8 hPa | 0 mm | - | 378 W/m² | - |
| 1778085897 | 18.89° C | 98% | 1012.1 hPa | 0 mm | - | 213 W/m² | - |
| 1778084078 | 18.33° C | 98% | 1011.9 hPa | 0 mm | - | 354 W/m² | - |
| 1778083775 | 18.33° C | 99% | 1011.6 hPa | 0 mm | - | 287 W/m² | - |
| 1778083472 | 18.33° C | 99% | 1011.7 hPa | 0 mm | - | 316 W/m² | - |
| 1778079629 | 17.22° C | 99% | 1012.7 hPa | 1.27 mm | - | 77 W/m² | - |
| 1778079023 | 17.22° C | 99% | 1012.6 hPa | 1.78 mm | - | 95 W/m² | - |
| 1778077813 | 17.22° C | 99% | 1013.2 hPa | 3.05 mm | - | 73 W/m² | - |
| 1778076604 | 17.22° C | 99% | 1012.2 hPa | 4.32 mm | - | 38 W/m² | - |
| 1778076301 | 17.22° C | 99% | 1012.3 hPa | 3.05 mm | - | 38 W/m² | - |
| 1778075695 | 17.22° C | 99% | 1012.1 hPa | 3.05 mm | - | 52 W/m² | - |
| 1778075087 | 17.22° C | 98% | 1011.8 hPa | 3.56 mm | - | 54 W/m² | - |
| 1778074481 | 17.22° C | 98% | 1011.8 hPa | 1.27 mm | - | 47 W/m² | - |
| 1778073572 | 17.22° C | 98% | 1011.6 hPa | 1.78 mm | - | 42 W/m² | - |
| 1778072662 | 17.22° C | 97% | 1011.7 hPa | 4.32 mm | - | 44 W/m² | - |
| 1778071756 | 17.22° C | 97% | 1012 hPa | 7.87 mm | - | 11 W/m² | - |
| 1778071151 | 17.22° C | 96% | 1011.9 hPa | 3.05 mm | - | 16 W/m² | - |
| 1778070849 | 17.22° C | 96% | 1011.2 hPa | 1.27 mm | - | 15 W/m² | - |
| 1778070546 | 17.22° C | 96% | 1011.8 hPa | 1.78 mm | - | 19 W/m² | - |
| 1778066008 | 18.89° C | 86% | 1010.3 hPa | 1.78 mm | - | 6 W/m² | - |
| 1778065705 | 18.89° C | 86% | 1010 hPa | 0 mm | - | 7 W/m² | - |
| 1778064795 | 20° C | 82% | 1010.3 hPa | 1.27 mm | - | 0 W/m² | - |
* Rain latest hour (hover to see other rain measurements)
** Current wind speed in m/s (hover to see current wind gust speed)